FW0158 Weather Reports


time (UTC)temp
F
wind
direction
speed
knots
gust
knots
rain 1hr
in
rain 24hr
in
rain mn
in
humidity
%
barometer
mb
20220627214524 87 255 4.3 7.8 0.00 0.00 0.00 48 1016.7
20220627213025 87 197 4.3 9.6 0.00 0.00 0.00 49 1016.9
20220627211522 87 297 2.6 13.9 0.00 0.00 0.00 47 1016.9
20220627210023 87 334 2.6 12.2 0.00 0.00 0.00 46 1016.9
20220627204520 86 231 4.3 10.4 0.00 0.00 0.00 49 1017.2
20220627203018 86 278 6.1 11.3 0.00 0.00 0.00 51 1017.3
20220627201524 86 245 5.2 11.3 0.00 0.00 0.00 51 1017.5
20220627200017 87 245 4.3 10.4 0.00 0.00 0.00 52 1017.6
20220627194516 86 214 4.3 12.2 0.00 0.00 0.00 56 1017.7
20220627193015 87 350 2.6 9.6 0.00 0.00 0.00 58 1017.9
20220627191514 86 226 3.5 11.3 0.00 0.00 0.00 58 1018.2
20220627190016 87 238 3.5 11.3 0.00 0.00 0.00 56 1018.3
20220627184512 87 345 2.6 7.8 0.00 0.00 0.00 57 1018.5
20220627183011 87 260 4.3 7.8 0.00 0.00 0.00 57 1018.5
20220627181508 86 313 5.2 9.6 0.00 0.00 0.00 58 1018.9
20220627180008 86 310 3.5 10.4 0.00 0.00 0.00 58 1019.0
20220627174504 85 272 2.6 11.3 0.00 0.00 0.00 60 1019.1
20220627173002 84 295 1.7 13.0 0.00 0.00 0.00 60 1019.2
20220627171559 84 223 2.6 11.3 0.00 0.00 0.00 61 1019.4
20220627170057 83 330 2.6 7.8 0.00 0.00 0.00 62 1019.4
20220627164554 83 259 2.6 10.4 0.00 0.00 0.00 63 1019.6
20220627163052 82 210 3.5 10.4 0.00 0.00 0.00 64 1019.5
20220627161550 82 260 3.5 7.8 0.00 0.00 0.00 64 1019.5
20220627160047 81 293 4.3 11.3 0.00 0.00 0.00 67 1019.6
20220627154547 80 299 4.3 9.6 0.00 0.00 0.00 68 1019.6
20220627153042 79 237 2.6 9.6 0.00 0.00 0.00 69 1019.6
20220627151542 79 245 2.6 7.8 0.00 0.00 0.00 69 1019.8
20220627150040 79 4 0.9 7.8 0.00 0.00 0.00 70 1019.7
20220627144537 78 337 2.6 9.6 0.00 0.00 0.00 72 1019.6
20220627143036 78 2 3.5 8.7 0.00 0.00 0.00 72 1019.6
20220627141534 76 343 0.9 9.6 0.00 0.00 0.00 74 1019.6
20220627140030 76 295 2.6 10.4 0.00 0.00 0.00 74 1019.7
20220627134527 75 180 1.7 7.8 0.00 0.00 0.00 75 1019.8
20220627133025 74 279 1.7 7.8 0.00 0.00 0.00 75 1019.6
20220627131522 74 180 1.7 9.6 0.00 0.00 0.00 77 1019.5
20220627130019 73 180 2.6 9.6 0.00 0.00 0.00 78 1019.4
20220627124520 72 180 3.5 8.7 0.00 0.00 0.00 80 1019.3
20220627123017 72 180 1.7 7.8 0.00 0.00 0.00 82 1019.3
20220627121513 71 180 1.7 5.2 0.00 0.00 0.00 82 1019.0
20220627120012 71 180 1.7 7.8 0.00 0.00 0.00 84 1019.0
20220627114509 71 180 2.6 7.8 0.00 0.00 0.00 86 1018.8
20220627113012 71 180 1.7 8.7 0.00 0.00 0.00 87 1018.6
20220627111506 71 180 2.6 9.6 0.00 0.00 0.00 88 1018.5
20220627110010 71 180 2.6 7.8 0.00 0.00 0.00 88 1018.2
20220627104502 72 180 1.7 5.2 0.00 0.00 0.00 89 1018.0
20220627103100 72 180 1.7 7.8 0.00 0.00 0.00 89 1017.9
20220627101607 72 180 1.7 7.8 0.00 0.00 0.00 90 1017.6
20220627100057 72 180 1.7 7.0 0.00 0.00 0.00 90 1017.4
20220627094555 72 180 1.7 5.2 0.00 0.00 0.00 91 1017.4
20220627093107 72 180 1.7 4.3 0.00 0.00 0.00 91 1017.2
20220627091555 72 180 1.7 5.2 0.00 0.00 0.00 92 1017.3
20220627090104 72 180 2.6 7.8 0.00 0.00 0.00 92 1017.2
20220627084555 72 180 2.6 7.0 0.00 0.00 0.00 93 1017.1
20220627083052 72 180 0.9 3.5 0.00 0.00 0.00 93 1017.1
20220627081600 72 180 1.7 4.3 0.00 0.00 0.00 93 1017.1
20220627080051 72 180 1.7 5.2 0.00 0.00 0.00 93 1017.2
20220627074556 72 180 1.7 5.2 0.00 0.00 0.00 93 1017.1
20220627073050 72 180 0.9 3.5 0.00 0.00 0.00 93 1017.1
20220627071605 72 180 0.9 3.5 0.00 0.00 0.00 93 1017.1
20220627070050 72 180 0.0 2.6 0.00 0.00 0.00 93 1017.3
20220627064545 72 180 0.0 1.7 0.00 0.00 0.00 93 1017.5
20220627063044 72 180 0.0 0.0 0.00 0.00 0.00 93 1017.5
20220627061544 72 180 0.0 0.0 0.00 0.00 0.00 92 1017.4
20220627060042 72 180 0.0 0.0 0.00 0.00 0.00 92 1017.5
20220627054547 72 180 0.0 0.0 0.00 0.00 0.00 92 1017.6
20220627053040 72 180 0.0 0.0 0.00 0.00 0.00 92 1017.7
20220627051539 72 180 0.0 0.0 0.00 0.00 0.00 92 1017.7
20220627050037 72 180 0.0 0.0 0.00 0.00 0.00 91 1017.7
20220627044537 72 180 0.0 0.0 0.00 0.00 0.00 91 1017.8
20220627043036 73 180 0.0 0.9 0.00 0.00 0.00 91 1017.8
20220627041535 73 180 0.9 2.6 0.00 0.00 0.00 91 1018.1
20220627040038 73 180 0.0 1.7 0.00 0.00 0.00 90 1018.1
20220627034535 73 180 0.9 1.7 0.00 0.00 0.00 91 1017.9
20220627033037 73 180 0.0 1.7 0.00 0.00 0.00 91 1018.1
20220627031534 73 180 0.0 2.6 0.00 0.00 0.00 91 1017.8
20220627030029 73 180 0.0 3.5 0.00 0.00 0.00 91 1017.6
20220627024536 73 180 1.7 5.2 0.00 0.00 0.00 91 1017.6
20220627023027 73 180 1.7 8.7 0.00 0.00 0.00 90 1017.6
20220627021527 73 180 1.7 5.2 0.00 0.00 0.00 90 1017.3
20220627020028 73 180 1.7 3.5 0.00 0.00 0.00 89 1017.0
20220627014531 74 180 1.7 4.3 0.00 0.00 0.00 88 1016.7
20220627013025 74 180 0.9 2.6 0.00 0.00 0.00 87 1016.5
20220627011526 75 180 0.0 3.5 0.00 0.00 0.00 86 1016.4
20220627010024 75 180 1.7 3.5 0.00 0.00 0.00 85 1016.3
20220627004524 75 180 1.7 3.5 0.00 0.00 0.00 84 1016.0
20220627003027 75 180 0.9 3.5 0.00 0.00 0.00 85 1015.8
20220627001527 75 180 0.9 3.5 0.00 0.00 0.00 85 1015.4
20220627000022 75 180 2.6 5.2 0.00 0.00 0.00 85 1015.0
20220626234522 76 180 2.6 4.3 0.00 0.00 0.00 84 1014.7
20220626233023 77 180 0.9 2.6 0.00 0.00 0.00 80 1014.7
20220626231521 77 180 3.5 7.0 0.00 0.00 0.00 79 1014.4
20220626230022 78 180 0.9 3.5 0.00 0.00 0.00 76 1014.6
20220626224519 79 180 3.5 9.6 0.00 0.00 0.00 72 1014.6
20220626223017 79 180 0.0 7.8 0.00 0.00 0.00 70 1014.7
20220626221516 79 180 1.7 7.0 0.00 0.00 0.00 72 1015.2
20220626220015 78 180 2.6 9.6 0.00 0.00 0.00 75 1015.7